ASL2KK LDSP-LOWW

Flight info

Callsign ASL2KK
Flight time 1h 11m
Altitude 30000
Route SIRMI DCT RUDIK DCT OBUTI OBUTI2W
Aircraft B738/M-SDE2E3FGHIRWXY/LB1

Departure

Time 2026-05-06 18:48
Airport Split Saint Jerome Airport (LDSP)

Arrival

Time 2026-05-06 20:00
Airport Vienna International Airport (LOWW)
Time Latitude Longitude Altitude Speed Heading
2026-05-06 18:33 43.53502 16.29654 66 ft 0 kts 182°
2026-05-06 18:44 43.53498 16.29662 60 ft 2 kts 112°
2026-05-06 18:44 43.53513 16.29672 63 ft 6 kts
2026-05-06 18:44 43.53567 16.29645 66 ft 10 kts 328°
2026-05-06 18:45 43.53629 16.29607 63 ft 10 kts
2026-05-06 18:45 43.53690 16.29585 67 ft 10 kts 305°
2026-05-06 18:45 43.53696 16.29495 77 ft 11 kts 262°
2026-05-06 18:45 43.53668 16.29409 84 ft 19 kts 236°
2026-05-06 18:46 43.53534 16.29161 69 ft 26 kts 233°
2026-05-06 18:46 43.53424 16.28963 81 ft 25 kts 232°
2026-05-06 18:46 43.53321 16.28779 84 ft 23 kts 232°
2026-05-06 18:46 43.53235 16.28644 74 ft 10 kts 208°
2026-05-06 18:47 43.53219 16.28602 73 ft 3 kts 334°
2026-05-06 18:47 43.53247 16.28628 72 ft 5 kts 52°
2026-05-06 18:47 43.53278 16.28683 69 ft 16 kts 52°
2026-05-06 18:47 43.53488 16.29066 80 ft 85 kts 53°
2026-05-06 18:48 43.53962 16.29942 77 ft 139 kts 57°
2026-05-06 18:48 43.54536 16.31115 426 ft 150 kts 66°
2026-05-06 18:48 43.54780 16.32459 908 ft 150 kts 104°
2026-05-06 18:48 43.54133 16.33535 1421 ft 153 kts 150°
2026-05-06 18:49 43.53183 16.34149 2039 ft 153 kts 150°
2026-05-06 18:49 43.52211 16.34864 2602 ft 169 kts 149°
2026-05-06 18:49 43.51099 16.35681 3028 ft 191 kts 152°
2026-05-06 18:49 43.49922 16.36536 3840 ft 193 kts 152°
2026-05-06 18:50 43.48735 16.37423 4626 ft 196 kts 153°
2026-05-06 18:50 43.47526 16.38357 5300 ft 201 kts 152°
2026-05-06 18:50 43.46290 16.39318 5499 ft 208 kts 154°
2026-05-06 18:50 43.44938 16.40284 5115 ft 234 kts 160°
2026-05-06 18:51 43.43278 16.40268 5478 ft 246 kts 203°
2026-05-06 18:51 43.42062 16.38729 6707 ft 238 kts 241°
2026-05-06 18:51 43.41794 16.36542 7740 ft 243 kts 276°
2026-05-06 18:51 43.42585 16.34541 8837 ft 242 kts 316°
2026-05-06 18:52 43.44002 16.33256 9836 ft 242 kts 323°
2026-05-06 18:52 43.45387 16.31951 10723 ft 243 kts 324°
2026-05-06 18:52 43.46991 16.31025 10805 ft 256 kts 345°
2026-05-06 18:52 43.48117 16.30739 10980 ft 241 kts 346°
2026-05-06 18:53 43.49782 16.30325 11411 ft 250 kts 346°
2026-05-06 18:53 43.52197 16.30089 12024 ft 278 kts 359°
2026-05-06 18:53 43.53548 16.30180 12190 ft 298 kts
2026-05-06 18:53 43.55707 16.30340 12564 ft 321 kts 360°
2026-05-06 18:54 43.57972 16.30433 13178 ft 332 kts 358°
2026-05-06 18:54 43.60230 16.30444 14575 ft 312 kts 356°
2026-05-06 18:54 43.62384 16.30418 15682 ft 313 kts 356°
2026-05-06 18:54 43.64650 16.30407 15961 ft 339 kts 356°
2026-05-06 18:55 43.67102 16.30405 16213 ft 364 kts 357°
2026-05-06 18:55 43.69681 16.30396 16853 ft 373 kts 357°
2026-05-06 18:55 43.72247 16.30390 18098 ft 363 kts 357°
2026-05-06 18:55 43.74703 16.30399 19322 ft 353 kts 357°
2026-05-06 18:56 43.77192 16.30409 19902 ft 366 kts 356°
2026-05-06 18:56 43.79822 16.30411 20050 ft 389 kts 356°
2026-05-06 18:56 43.82617 16.30409 20216 ft 410 kts 356°
2026-05-06 18:56 43.85534 16.30407 20515 ft 425 kts 356°
2026-05-06 18:57 43.88505 16.30409 21103 ft 429 kts 356°
2026-05-06 18:57 43.91505 16.30412 21817 ft 431 kts 356°
2026-05-06 18:57 43.94473 16.30413 22500 ft 433 kts 356°
2026-05-06 18:57 43.97508 16.30413 23150 ft 436 kts 356°
2026-05-06 18:58 44.00559 16.30411 23730 ft 440 kts 356°
2026-05-06 18:58 44.03629 16.30407 24220 ft 443 kts 356°
2026-05-06 18:58 44.06730 16.30405 24685 ft 447 kts 356°
2026-05-06 18:58 44.09856 16.30403 25127 ft 451 kts 356°
2026-05-06 18:59 44.13019 16.30400 25597 ft 455 kts 356°
2026-05-06 18:59 44.16196 16.30397 26067 ft 458 kts 355°
2026-05-06 18:59 44.19359 16.30398 26514 ft 462 kts 355°
2026-05-06 18:59 44.22594 16.30401 26959 ft 465 kts 355°
2026-05-06 19:00 44.25841 16.30405 27372 ft 469 kts 355°
2026-05-06 19:00 44.29118 16.30409 27779 ft 472 kts 355°
2026-05-06 19:00 44.32419 16.30414 28192 ft 475 kts 355°
2026-05-06 19:00 44.35744 16.30418 28597 ft 478 kts 355°
2026-05-06 19:01 44.39080 16.30423 28983 ft 480 kts 355°
2026-05-06 19:01 44.42418 16.30428 29475 ft 479 kts 355°
2026-05-06 19:01 44.45702 16.30435 30012 ft 478 kts 354°
2026-05-06 19:02 44.52404 16.30443 29986 ft 479 kts 355°
2026-05-06 19:02 44.58985 16.30455 29984 ft 474 kts 354°
2026-05-06 19:03 44.65600 16.30460 29970 ft 475 kts 354°
2026-05-06 19:03 44.72228 16.30466 29956 ft 476 kts 355°
2026-05-06 19:04 44.78812 16.30474 29959 ft 476 kts 355°
2026-05-06 19:04 44.85440 16.30483 29961 ft 475 kts 355°
2026-05-06 19:05 44.92059 16.30491 29960 ft 475 kts 355°
2026-05-06 19:05 44.98676 16.30498 29947 ft 474 kts 355°
2026-05-06 19:06 45.05224 16.30430 29942 ft 472 kts 354°
2026-05-06 19:06 45.11801 16.30264 29945 ft 472 kts 354°
2026-05-06 19:07 45.18367 16.30096 29937 ft 471 kts 354°
2026-05-06 19:07 45.24919 16.29944 29943 ft 470 kts 354°
2026-05-06 19:08 45.31466 16.29799 29930 ft 469 kts 354°
2026-05-06 19:08 45.34687 16.29733 29914 ft 456 kts 354°
2026-05-06 19:08 45.37849 16.29668 29923 ft 452 kts 354°
2026-05-06 19:09 45.44109 16.29527 29939 ft 453 kts 354°
2026-05-06 19:09 45.50121 16.29387 29943 ft 454 kts 354°
2026-05-06 19:10 45.56450 16.29244 29933 ft 454 kts 354°
2026-05-06 19:10 45.62768 16.29103 29935 ft 453 kts 354°
2026-05-06 19:11 45.69033 16.28963 29939 ft 452 kts 354°
2026-05-06 19:11 45.75331 16.28822 29939 ft 451 kts 354°
2026-05-06 19:12 45.81622 16.28680 29939 ft 451 kts 354°
2026-05-06 19:12 45.87862 16.28539 29925 ft 450 kts 354°
2026-05-06 19:13 45.94134 16.28397 29924 ft 448 kts 354°
2026-05-06 19:13 45.97223 16.28330 29550 ft 440 kts 354°
2026-05-06 19:13 46.00289 16.28262 28697 ft 441 kts 354°
2026-05-06 19:13 46.03373 16.28190 27630 ft 446 kts 354°
2026-05-06 19:14 46.06508 16.28114 26553 ft 452 kts 355°
2026-05-06 19:14 46.09555 16.28047 26396 ft 435 kts 355°
2026-05-06 19:14 46.12546 16.27985 26111 ft 423 kts 355°
2026-05-06 19:14 46.15249 16.27927 25871 ft 413 kts 355°
2026-05-06 19:15 46.18100 16.27862 25624 ft 407 kts 355°
2026-05-06 19:15 46.20935 16.27794 25383 ft 406 kts 355°
2026-05-06 19:15 46.23728 16.27727 25144 ft 405 kts 355°
2026-05-06 19:15 46.26552 16.27659 24957 ft 407 kts 355°
2026-05-06 19:16 46.29396 16.27592 24926 ft 410 kts 355°
2026-05-06 19:16 46.32264 16.27526 24904 ft 412 kts 355°
2026-05-06 19:16 46.35127 16.27461 24893 ft 411 kts 355°
2026-05-06 19:16 46.37974 16.27381 24890 ft 410 kts 353°
2026-05-06 19:17 46.40829 16.26975 24891 ft 408 kts 348°
2026-05-06 19:17 46.43636 16.26316 24899 ft 408 kts 346°
2026-05-06 19:17 46.46405 16.25583 24782 ft 401 kts 346°
2026-05-06 19:17 46.49105 16.24864 24389 ft 399 kts 346°
2026-05-06 19:18 46.51835 16.24156 24016 ft 397 kts 346°
2026-05-06 19:18 46.54552 16.23474 23678 ft 396 kts 347°
2026-05-06 19:18 46.57286 16.22805 23314 ft 399 kts 347°
2026-05-06 19:18 46.60036 16.22142 22910 ft 401 kts 347°
2026-05-06 19:19 46.62792 16.21485 22511 ft 401 kts 347°
2026-05-06 19:19 46.65540 16.20833 22118 ft 399 kts 347°
2026-05-06 19:19 46.68279 16.20182 21708 ft 398 kts 347°
2026-05-06 19:19 46.70980 16.19540 21317 ft 397 kts 347°
2026-05-06 19:20 46.73694 16.18894 21001 ft 394 kts 347°
2026-05-06 19:20 46.76398 16.18249 20690 ft 391 kts 347°
2026-05-06 19:20 46.79075 16.17609 20385 ft 388 kts 347°
2026-05-06 19:20 46.81738 16.16972 20093 ft 386 kts 347°
2026-05-06 19:21 46.84381 16.16339 19864 ft 382 kts 347°
2026-05-06 19:21 46.86987 16.15714 19665 ft 378 kts 347°
2026-05-06 19:21 46.89539 16.15102 19476 ft 375 kts 347°
2026-05-06 19:21 46.92121 16.14480 19284 ft 378 kts 347°
2026-05-06 19:22 46.94728 16.13852 19101 ft 380 kts 347°
2026-05-06 19:22 46.97343 16.13222 18913 ft 379 kts 347°
2026-05-06 19:22 46.99947 16.12595 18719 ft 378 kts 347°
2026-05-06 19:22 47.02544 16.11969 18526 ft 376 kts 347°
2026-05-06 19:23 47.05119 16.11347 18342 ft 375 kts 347°
2026-05-06 19:23 47.07697 16.10724 18156 ft 374 kts 347°
2026-05-06 19:23 47.10255 16.10105 17961 ft 372 kts 347°
2026-05-06 19:23 47.12784 16.09492 17871 ft 371 kts 347°
2026-05-06 19:24 47.15337 16.08872 17855 ft 371 kts 347°
2026-05-06 19:24 47.17889 16.08252 17847 ft 371 kts 347°
2026-05-06 19:24 47.20433 16.07634 17844 ft 371 kts 347°
2026-05-06 19:24 47.22979 16.07014 17839 ft 366 kts 347°
2026-05-06 19:25 47.25457 16.06414 17827 ft 355 kts 347°
2026-05-06 19:25 47.27831 16.05837 17823 ft 345 kts 347°
2026-05-06 19:25 47.30187 16.05261 17829 ft 341 kts 347°
2026-05-06 19:25 47.32538 16.04684 17845 ft 344 kts 347°
2026-05-06 19:26 47.34908 16.04103 17848 ft 345 kts 347°
2026-05-06 19:26 47.37316 16.03900 17817 ft 352 kts
2026-05-06 19:26 47.39702 16.04813 17856 ft 353 kts 15°
2026-05-06 19:26 47.42009 16.05955 17834 ft 354 kts 17°
2026-05-06 19:27 47.44342 16.07160 17831 ft 354 kts 17°
2026-05-06 19:27 47.46669 16.08362 17822 ft 354 kts 17°
2026-05-06 19:27 47.49001 16.09554 17821 ft 353 kts 17°
2026-05-06 19:27 47.51330 16.10731 17816 ft 352 kts 17°
2026-05-06 19:28 47.53653 16.11896 17818 ft 352 kts 17°
2026-05-06 19:28 47.55968 16.13052 17810 ft 351 kts 17°
2026-05-06 19:28 47.58259 16.14195 17795 ft 350 kts 17°
2026-05-06 19:28 47.60577 16.15350 17731 ft 351 kts 17°
2026-05-06 19:29 47.62880 16.16500 17534 ft 348 kts 17°
2026-05-06 19:29 47.65160 16.17640 17128 ft 344 kts 17°
2026-05-06 19:29 47.67438 16.18777 16577 ft 346 kts 17°
2026-05-06 19:29 47.69720 16.19918 16144 ft 344 kts 17°
2026-05-06 19:30 47.71986 16.21054 15738 ft 342 kts 17°
2026-05-06 19:30 47.74243 16.22185 15331 ft 340 kts 17°
2026-05-06 19:30 47.76328 16.23761 14906 ft 340 kts 38°
2026-05-06 19:30 47.77899 16.26330 14527 ft 335 kts 59°
2026-05-06 19:31 47.79092 16.29284 14183 ft 332 kts 62°
2026-05-06 19:31 47.80220 16.32250 14012 ft 326 kts 62°
2026-05-06 19:31 47.82446 16.38098 13665 ft 328 kts 62°
2026-05-06 19:32 47.83586 16.41048 13505 ft 330 kts 62°
2026-05-06 19:32 47.84743 16.44021 13320 ft 331 kts 62°
2026-05-06 19:32 47.85895 16.46977 13132 ft 329 kts 62°
2026-05-06 19:32 47.87040 16.49915 12947 ft 328 kts 62°
2026-05-06 19:33 47.88184 16.52857 12778 ft 326 kts 62°
2026-05-06 19:33 47.89318 16.55777 12611 ft 325 kts 62°
2026-05-06 19:33 47.90432 16.58647 12432 ft 324 kts 62°
2026-05-06 19:33 47.91558 16.61552 12257 ft 323 kts 62°
2026-05-06 19:34 47.92684 16.64461 12094 ft 322 kts 62°
2026-05-06 19:34 47.93800 16.67348 11919 ft 322 kts 62°
2026-05-06 19:34 47.94919 16.70242 11750 ft 321 kts 62°
2026-05-06 19:34 47.96034 16.73132 11578 ft 321 kts 62°
2026-05-06 19:35 47.97148 16.76020 11416 ft 321 kts 62°
2026-05-06 19:35 47.98447 16.78729 11215 ft 323 kts 43°
2026-05-06 19:35 48.00338 16.80481 11058 ft 321 kts 17°
2026-05-06 19:35 48.02514 16.80930 10901 ft 314 kts 352°
2026-05-06 19:36 48.04579 16.80158 10746 ft 306 kts 331°
2026-05-06 19:36 48.06474 16.78730 10589 ft 304 kts 327°
2026-05-06 19:36 48.08336 16.77247 10426 ft 304 kts 327°
2026-05-06 19:36 48.10209 16.75769 10262 ft 304 kts 328°
2026-05-06 19:37 48.12083 16.74303 10090 ft 304 kts 328°
2026-05-06 19:37 48.13959 16.72849 9995 ft 300 kts 328°
2026-05-06 19:37 48.15799 16.71429 9994 ft 296 kts 328°
2026-05-06 19:37 48.17008 16.70495 9990 ft 296 kts 328°
2026-05-06 19:38 48.19403 16.68726 9975 ft 294 kts 338°
2026-05-06 19:38 48.21400 16.68575 9982 ft 285 kts 13°
2026-05-06 19:38 48.23074 16.69982 9976 ft 271 kts 49°
2026-05-06 19:38 48.24065 16.72291 10007 ft 262 kts 64°
2026-05-06 19:39 48.24947 16.74840 10050 ft 297 kts 65°
2026-05-06 19:39 48.25923 16.77726 10039 ft 320 kts 65°
2026-05-06 19:39 48.26939 16.80742 9990 ft 318 kts 65°
2026-05-06 19:39 48.27541 16.83846 9970 ft 305 kts 94°
2026-05-06 19:40 48.27083 16.86795 9981 ft 290 kts 124°
2026-05-06 19:40 48.25721 16.88890 10006 ft 278 kts 155°
2026-05-06 19:40 48.23961 16.90044 10006 ft 276 kts 164°
2026-05-06 19:40 48.22096 16.90489 10002 ft 270 kts 188°
2026-05-06 19:41 48.20869 16.90208 10006 ft 270 kts 193°
2026-05-06 19:41 48.19034 16.89615 10005 ft 271 kts 195°
2026-05-06 19:41 48.17290 16.88616 9989 ft 269 kts 218°
2026-05-06 19:41 48.16175 16.86407 9963 ft 268 kts 246°
2026-05-06 19:42 48.15534 16.82851 9603 ft 265 kts 255°
2026-05-06 19:42 48.15267 16.81016 9259 ft 267 kts 255°
2026-05-06 19:42 48.14907 16.78275 8777 ft 270 kts 262°
2026-05-06 19:42 48.15285 16.75504 8337 ft 281 kts 295°
2026-05-06 19:43 48.16638 16.73431 7993 ft 289 kts 325°
2026-05-06 19:43 48.18473 16.72168 7651 ft 290 kts 334°
2026-05-06 19:43 48.20361 16.71074 7231 ft 291 kts 335°
2026-05-06 19:43 48.22248 16.70004 6871 ft 289 kts 335°
2026-05-06 19:44 48.24127 16.68946 6523 ft 287 kts 335°
2026-05-06 19:44 48.25995 16.67895 6179 ft 284 kts 335°
2026-05-06 19:44 48.27822 16.66865 5873 ft 281 kts 335°
2026-05-06 19:44 48.29614 16.65859 5795 ft 268 kts 335°
2026-05-06 19:45 48.31334 16.64901 5689 ft 258 kts 335°
2026-05-06 19:45 48.32989 16.63982 5546 ft 249 kts 335°
2026-05-06 19:45 48.34595 16.63091 5413 ft 241 kts 335°
2026-05-06 19:45 48.36122 16.62250 5345 ft 227 kts 335°
2026-05-06 19:46 48.37577 16.61461 5070 ft 221 kts 335°
2026-05-06 19:46 48.39037 16.60675 5030 ft 226 kts 335°
2026-05-06 19:46 48.40523 16.59872 4981 ft 226 kts 335°
2026-05-06 19:46 48.41995 16.59076 4977 ft 223 kts 335°
2026-05-06 19:47 48.43504 16.58488 4952 ft 229 kts 358°
2026-05-06 19:47 48.44981 16.59293 4974 ft 235 kts 39°
2026-05-06 19:47 48.46027 16.61178 4988 ft 236 kts 48°
2026-05-06 19:47 48.47425 16.62370 4979 ft 231 kts
2026-05-06 19:48 48.49017 16.62417 4993 ft 229 kts 352°
2026-05-06 19:48 48.50459 16.61609 4980 ft 218 kts 313°
2026-05-06 19:48 48.51460 16.59924 4975 ft 215 kts 301°
2026-05-06 19:48 48.52068 16.57914 4988 ft 209 kts 285°
2026-05-06 19:49 48.52560 16.55845 4986 ft 208 kts 285°
2026-05-06 19:49 48.53033 16.53789 4967 ft 205 kts 281°
2026-05-06 19:49 48.52980 16.51743 4985 ft 196 kts 255°
2026-05-06 19:49 48.52675 16.49723 4976 ft 197 kts 255°
2026-05-06 19:50 48.52375 16.47712 4961 ft 193 kts 255°
2026-05-06 19:50 48.52089 16.45796 4947 ft 181 kts 255°
2026-05-06 19:50 48.51749 16.44011 4944 ft 176 kts 237°
2026-05-06 19:50 48.50751 16.42998 4986 ft 183 kts 196°
2026-05-06 19:51 48.49473 16.42633 4971 ft 191 kts 187°
2026-05-06 19:51 48.48172 16.42890 4980 ft 190 kts 173°
2026-05-06 19:51 48.46885 16.43304 4962 ft 188 kts 172°
2026-05-06 19:51 48.45600 16.43726 4964 ft 190 kts 172°
2026-05-06 19:52 48.44312 16.44188 4977 ft 191 kts 171°
2026-05-06 19:52 48.43023 16.44692 4969 ft 192 kts 170°
2026-05-06 19:52 48.41749 16.45213 4952 ft 186 kts 169°
2026-05-06 19:52 48.40526 16.45725 4963 ft 180 kts 169°
2026-05-06 19:53 48.39319 16.46232 4972 ft 181 kts 169°
2026-05-06 19:53 48.38093 16.46747 4973 ft 184 kts 169°
2026-05-06 19:53 48.36873 16.47265 4988 ft 184 kts 170°
2026-05-06 19:53 48.35632 16.47791 4987 ft 185 kts 169°
2026-05-06 19:54 48.34393 16.48316 4990 ft 183 kts 170°
2026-05-06 19:54 48.33163 16.48837 4835 ft 186 kts 170°
2026-05-06 19:54 48.31923 16.49362 4604 ft 184 kts 170°
2026-05-06 19:54 48.30705 16.49880 4351 ft 179 kts 170°
2026-05-06 19:55 48.29546 16.50372 4141 ft 171 kts 170°
2026-05-06 19:55 48.28421 16.50851 3904 ft 163 kts 171°
2026-05-06 19:55 48.27331 16.51311 3713 ft 163 kts 171°
2026-05-06 19:55 48.26237 16.51772 3490 ft 164 kts 171°
2026-05-06 19:56 48.25127 16.52241 3284 ft 166 kts 169°
2026-05-06 19:56 48.24029 16.52708 3061 ft 162 kts 169°
2026-05-06 19:56 48.22967 16.53158 2857 ft 162 kts 169°
2026-05-06 19:56 48.21883 16.53617 2632 ft 158 kts 169°
2026-05-06 19:57 48.20876 16.54047 2430 ft 143 kts 169°
2026-05-06 19:57 48.19978 16.54428 2274 ft 127 kts 169°
2026-05-06 19:57 48.19151 16.54777 2089 ft 119 kts 169°
2026-05-06 19:57 48.18356 16.55106 1914 ft 119 kts 169°
2026-05-06 19:58 48.17553 16.55430 1805 ft 119 kts 168°
2026-05-06 19:58 48.16766 16.55763 1656 ft 120 kts 166°
2026-05-06 19:58 48.15965 16.56110 1487 ft 120 kts 166°
2026-05-06 19:58 48.15165 16.56459 1297 ft 120 kts 166°
2026-05-06 19:59 48.14364 16.56802 1120 ft 122 kts 165°
2026-05-06 19:59 48.13530 16.57161 1000 ft 126 kts 166°
2026-05-06 19:59 48.12681 16.57525 797 ft 127 kts 166°
2026-05-06 19:59 48.11860 16.57869 633 ft 116 kts 164°
2026-05-06 20:00 48.11182 16.58157 613 ft 76 kts 165°
2026-05-06 20:00 48.10823 16.58286 620 ft 45 kts 175°
2026-05-06 20:00 48.10605 16.58242 609 ft 15 kts 193°
2026-05-06 20:00 48.10580 16.58232 609 ft 0 kts 194°
2026-05-06 20:01 48.10567 16.58215 625 ft 4 kts 224°
2026-05-06 20:01 48.10557 16.58188 613 ft 3 kts 254°
2026-05-06 20:01 48.10556 16.58180 612 ft 0 kts 264°
2026-05-06 20:01 48.10557 16.58170 613 ft 2 kts 275°
2026-05-06 20:02 48.10572 16.58143 612 ft 4 kts 327°
2026-05-06 20:02 48.10602 16.58131 612 ft 7 kts 339°
2026-05-06 20:02 48.10695 16.58083 617 ft 15 kts 342°
2026-05-06 20:02 48.10784 16.58045 622 ft 10 kts 343°
2026-05-06 20:03 48.10850 16.58015 614 ft 10 kts 343°
2026-05-06 20:03 48.10914 16.57986 616 ft 10 kts 344°
2026-05-06 20:03 48.10983 16.57959 614 ft 11 kts 345°
2026-05-06 20:03 48.11070 16.57917 620 ft 16 kts 330°
2026-05-06 20:04 48.11138 16.57771 612 ft 18 kts 295°
2026-05-06 20:04 48.11190 16.57605 619 ft 17 kts 297°
2026-05-06 20:04 48.11244 16.57448 620 ft 17 kts 296°
2026-05-06 20:04 48.11294 16.57296 620 ft 16 kts 295°
2026-05-06 20:05 48.11349 16.57119 611 ft 21 kts 296°
2026-05-06 20:05 48.11411 16.56933 612 ft 18 kts 297°
2026-05-06 20:05 48.11429 16.56879 614 ft 0 kts 296°
2026-05-06 20:05 48.11430 16.56877 614 ft 5 kts 296°
2026-05-06 20:06 48.11471 16.56755 609 ft 15 kts 297°
2026-05-06 20:06 48.11518 16.56609 616 ft 18 kts 296°
2026-05-06 20:06 48.11574 16.56439 618 ft 19 kts 296°
2026-05-06 20:06 48.11635 16.56271 609 ft 16 kts 316°
2026-05-06 20:07 48.11733 16.56304 614 ft 15 kts 28°
2026-05-06 20:07 48.11736 16.56435 617 ft 15 kts 114°
2026-05-06 20:07 48.11687 16.56540 609 ft 12 kts 175°
2026-05-06 20:07 48.11630 16.56504 611 ft 0 kts 207°